[Date Prev][Date Next][Thread Prev][Thread Next] - [Date Index][Thread Index][Author Index]

2 Line ISS Keps 4-15



ISS
1 25544U 98067A   02105.21613067  .00021374  00000-0  26612-3 0  3085
2 25544  51.6385   9.2893 0003888 356.1752 143.0526 15.59870814194202


----
Via the sarex mailing list at AMSAT.ORG courtesy of AMSAT-NA.
To unsubscribe, send "unsubscribe sarex" to Majordomo@amsat.org



AMSAT Top AMSAT Home